(173275) = 1999 TQ16 = 2003 QU61

Discovered at Ondrejov on 1999-10-14 by L. Sarounova.

Orbit

Orbit type: Main Belt

Note: WebGL enabled browser required.

epoch2023-02-25.0
epoch JD2460000.5
perihelion date2020-02-14.74253
perihelion JD2458894.24253
argument of perihelion (°)290.68305
ascending node (°)20.95562
inclination (°)15.20859
eccentricity0.1282520
perihelion distance (AU)2.2815466
Tisserand w.r.t. Jupiter3.3
ΔV w.r.t. Earth (km/sec)10.6
semimajor axis (AU)2.6172090
mean anomaly (°)257.51496
mean daily motion (°/day)0.23278030
aphelion distance (AU)2.953
period (years)4.23
P-vector [x]0.65271233
P-vector [y]-0.55998173
P-vector [z]-0.51028137
Q-vector [x]0.75177389
Q-vector [y]0.56214834
Q-vector [z]0.34471039
absolute magnitude15.77
phase slope0.15
uncertainty0
referenceMPO 745323
observations used696
oppositions15
arc length (days)8626
first opposition used1999
last opposition used2023
residual rms (arc-secs)0.76
perturbers coarse indicatorM-v
perturbers precise indicator003Ek
first observation date used1999-10-12.0
last observation date used2023-05-25.0
computer nameMPCLINUX
JD of orbit computation2456819.573921
perihelion JD uncertainty (days)1.9987E-04
argument of perihelion uncertainty (°)4.5628E-05
ascending node uncertainty (°)2.3055E-05
inclination uncertainty (°)1.0803E-05
eccentricity uncertainty 8.5894E-08
perihelion distance uncertainty (AU)2.3844E-07
Minimum Orbit Intersection Distances (in AU)
for orbit epoch: 2460000.5, reference: E2023-KF3
Mercury1.85232
Venus1.57279
Earth1.31797
Mars0.96381
Jupiter2.42523
Saturn6.31979
Uranus15.5859
Neptune27.2897

Observations

705 total observations over interval: 1999 10 12.28556 – 2023 05 25.269821
These data are available for download (format description).

Date (UT) J2000 RA J2000 Dec Magn Location Ref
1999 10 12.28556 02 44 25.55 +22 06 04.2 19.9   704 – Lincoln Laboratory ETS, New Mexico MPS 15246
1999 10 12.29919 02 44 24.75 +22 06 06.7 19.7   704 – Lincoln Laboratory ETS, New Mexico MPS 15246
1999 10 12.31282 02 44 24.05 +22 06 10.3 19.5   704 – Lincoln Laboratory ETS, New Mexico MPS 15246
1999 10 14.05250 02 42 43.80 +22 11 38.8   557 – Ondrejov MPS 6927
1999 10 14.06097 02 42 43.32 +22 11 40.1 19.2 V 557 – Ondrejov MPS 6927
1999 10 16.06770 02 40 43.11 +22 17 29.5 19.5 V 557 – Ondrejov MPS 6927
1999 10 16.08221 02 40 42.19 +22 17 31.6   557 – Ondrejov MPS 6927
1999 10 19.09531 02 37 33.26 +22 25 12.0 19.1 V 557 – Ondrejov MPS 6927
1999 10 19.10041 02 37 32.88 +22 25 13.3   557 – Ondrejov MPS 6927
1999 10 30.04713 02 25 10.26 +22 42 18.0   557 – Ondrejov MPS 7383
1999 10 30.07697 02 25 08.16 +22 42 19.8   557 – Ondrejov MPS 7383
1999 11 03.32661 02 20 11.36 +22 44 39.4 19.3   704 – Lincoln Laboratory ETS, New Mexico MPS 7383
1999 11 03.34274 02 20 10.26 +22 44 38.9 18.5   704 – Lincoln Laboratory ETS, New Mexico MPS 7383
1999 11 03.37490 02 20 07.86 +22 44 38.6 18.6   704 – Lincoln Laboratory ETS, New Mexico MPS 7383
2003 08 23.35355 01 27 04.92 +00 33 02.3 18.9   704 – Lincoln Laboratory ETS, New Mexico MPS 83514
2003 08 23.36578 01 27 04.71 +00 33 04.6 19.6   704 – Lincoln Laboratory ETS, New Mexico MPS 83514
2003 08 23.39025 01 27 04.30 +00 33 08.4 19.8   704 – Lincoln Laboratory ETS, New Mexico MPS 83514
2003 08 26.35756 01 26 22.75 +00 40 28.6 19.0   704 – Lincoln Laboratory ETS, New Mexico MPS 83514
2003 08 26.37041 01 26 22.55 +00 40 31.3 19.5   704 – Lincoln Laboratory ETS, New Mexico MPS 83514
2003 08 26.40915 01 26 21.82 +00 40 36.4 19.5   704 – Lincoln Laboratory ETS, New Mexico MPS 83514
2003 09 02.31051 01 23 41.65 +00 54 42.2 18.6   704 – Lincoln Laboratory ETS, New Mexico MPS 84118
2003 09 02.32215 01 23 41.27 +00 54 43.1 19.1   704 – Lincoln Laboratory ETS, New Mexico MPS 84118
2003 09 02.33375 01 23 40.88 +00 54 44.7 19.5   704 – Lincoln Laboratory ETS, New Mexico MPS 84118
2003 09 02.34534 01 23 40.54 +00 54 46.5 18.9   704 – Lincoln Laboratory ETS, New Mexico MPS 84118
2003 09 02.35691 01 23 40.16 +00 54 47.5 19.1   704 – Lincoln Laboratory ETS, New Mexico MPS 84118
2003 09 09.52734 01 19 22.90 +01 05 40.2 20.7   608 – Haleakala-AMOS MPS 84449
2003 09 09.53792 01 19 22.41 +01 05 40.7 19.8   608 – Haleakala-AMOS MPS 84449
2003 09 09.54872 01 19 21.91 +01 05 41.2 20.5   608 – Haleakala-AMOS MPS 84449
2003 09 18.47832 01 12 06.08 +01 15 04.0 18.4   644 – Palomar Mountain/NEAT MPS 84449
2003 09 18.49962 01 12 04.87 +01 15 05.0 18.4   644 – Palomar Mountain/NEAT MPS 84449
2003 09 18.52096 01 12 03.66 +01 15 06.0 18.5   644 – Palomar Mountain/NEAT MPS 84449
2003 09 19.27951 01 11 21.93 +01 15 44.5 18.6   644 – Palomar Mountain/NEAT MPS 85014
2003 09 19.30348 01 11 20.51 +01 15 45.8 18.4   704 – Lincoln Laboratory ETS, New Mexico MPS 85014
2003 09 19.31592 01 11 19.78 +01 15 46.3 19.0   704 – Lincoln Laboratory ETS, New Mexico MPS 85014
2003 09 19.32802 01 11 19.03 +01 15 46.9 18.7   704 – Lincoln Laboratory ETS, New Mexico MPS 85014
2003 09 19.34014 01 11 18.36 +01 15 48.0 18.8   704 – Lincoln Laboratory ETS, New Mexico MPS 85014
2003 09 19.34323 01 11 18.26 +01 15 47.6 18.6   644 – Palomar Mountain/NEAT MPS 85014
2003 09 19.35234 01 11 17.65 +01 15 48.2 18.9   704 – Lincoln Laboratory ETS, New Mexico MPS 85014
2003 09 19.40591 01 11 14.59 +01 15 50.8 18.7   644 – Palomar Mountain/NEAT MPS 85014
2003 09 28.23544 01 02 18.55 +01 22 24.7 19.1   704 – Lincoln Laboratory ETS, New Mexico MPS 86034
2003 09 28.24883 01 02 17.72 +01 22 26.1 19.2   704 – Lincoln Laboratory ETS, New Mexico MPS 86034
2003 09 28.25881 01 02 17.03 +01 22 26.4 18.6 R 699 – Lowell Observatory-LONEOS MPS 86034
2003 09 28.26154 01 02 16.84 +01 22 26.5 19.3   704 – Lincoln Laboratory ETS, New Mexico MPS 86034
2003 09 28.27209 01 02 16.19 +01 22 26.8   699 – Lowell Observatory-LONEOS MPS 86034
2003 09 28.27414 01 02 16.00 +01 22 27.0 19.1   704 – Lincoln Laboratory ETS, New Mexico MPS 86034
2003 09 28.28542 01 02 15.32 +01 22 27.5   699 – Lowell Observatory-LONEOS MPS 86034
2003 09 28.28709 01 02 15.16 +01 22 28.0 19.0   704 – Lincoln Laboratory ETS, New Mexico MPS 86034
2003 09 28.29877 01 02 14.38 +01 22 28.0   699 – Lowell Observatory-LONEOS MPS 86034
2003 10 01.17042 00 59 07.61 +01 24 33.3 18.7 R 699 – Lowell Observatory-LONEOS MPS 86859
2003 10 01.18546 00 59 06.54 +01 24 33.7   699 – Lowell Observatory-LONEOS MPS 86859
2003 10 01.20041 00 59 05.52 +01 24 34.0   699 – Lowell Observatory-LONEOS MPS 86859
2003 10 01.21542 00 59 04.62 +01 24 34.7   699 – Lowell Observatory-LONEOS MPS 86859
2003 10 05.31543 00 54 32.73 +01 27 52.7 18.8   704 – Lincoln Laboratory ETS, New Mexico MPS 86859
2003 10 05.32962 00 54 31.81 +01 27 53.2 18.9   704 – Lincoln Laboratory ETS, New Mexico MPS 86859
2003 10 05.34304 00 54 30.83 +01 27 54.2 18.8   704 – Lincoln Laboratory ETS, New Mexico MPS 86859
2003 10 05.35657 00 54 29.96 +01 27 54.0 18.8   704 – Lincoln Laboratory ETS, New Mexico MPS 86859
2003 10 15.23590 00 43 44.14 +01 38 37.5 18.7 R 699 – Lowell Observatory-LONEOS MPS 87648
2003 10 15.25577 00 43 42.95 +01 38 39.3   699 – Lowell Observatory-LONEOS MPS 87648
2003 10 15.27567 00 43 41.61 +01 38 40.6   699 – Lowell Observatory-LONEOS MPS 87648
2003 10 15.29555 00 43 40.40 +01 38 42.8   699 – Lowell Observatory-LONEOS MPS 87648
2003 10 18.22055 00 40 39.70 +01 43 01.5 20.0 R 683 – Goodricke-Pigott Observatory, Tucson MPS 89242
2003 10 18.23395 00 40 38.79 +01 43 03.4 21.5 R 683 – Goodricke-Pigott Observatory, Tucson MPS 89242
2003 10 18.24734 00 40 38.03 +01 43 03.9 21.3 R 683 – Goodricke-Pigott Observatory, Tucson MPS 89242
2003 10 19.21711 00 39 39.98 +01 44 38.1 20.8 R 683 – Goodricke-Pigott Observatory, Tucson MPS 89242
2003 10 19.23053 00 39 39.02 +01 44 39.5 20.3 R 683 – Goodricke-Pigott Observatory, Tucson MPS 89242
2003 10 19.24390 00 39 38.21 +01 44 40.5 20.3 R 683 – Goodricke-Pigott Observatory, Tucson MPS 89242
2003 10 19.27417 00 39 36.31 +01 44 43.1 19.1 V 691 – Steward Observatory, Kitt Peak-Spacewatch MPS 87648
2003 10 19.30235 00 39 34.58 +01 44 46.0 19.1 V 691 – Steward Observatory, Kitt Peak-Spacewatch MPS 87648
2003 10 19.33032 00 39 32.86 +01 44 48.6 19.1 V 691 – Steward Observatory, Kitt Peak-Spacewatch MPS 87648
2003 10 20.21371 00 38 40.91 +01 46 18.8 20.1 R 683 – Goodricke-Pigott Observatory, Tucson MPS 89242
2003 10 20.22712 00 38 40.29 +01 46 20.6 20.8 R 683 – Goodricke-Pigott Observatory, Tucson MPS 89242
2003 10 20.25887 00 38 38.17 +01 46 23.4 18.7   704 – Lincoln Laboratory ETS, New Mexico MPS 87648
2003 10 20.27088 00 38 37.46 +01 46 24.9 19.1   704 – Lincoln Laboratory ETS, New Mexico MPS 87648
2003 10 20.28275 00 38 36.72 +01 46 26.2 19.2   704 – Lincoln Laboratory ETS, New Mexico MPS 87648
2003 10 20.29434 00 38 36.04 +01 46 27.0 19.0   704 – Lincoln Laboratory ETS, New Mexico MPS 87648
2003 10 20.30602 00 38 35.31 +01 46 28.3 18.7   704 – Lincoln Laboratory ETS, New Mexico MPS 87648
2003 10 21.21032 00 37 43.01 +01 48 03.9 20.7 R 683 – Goodricke-Pigott Observatory, Tucson MPS 89242
2003 10 21.21929 00 37 42.58 +01 48 05.6 18.6   644 – Palomar Mountain/NEAT MPS 87648
2003 10 21.22373 00 37 42.33 +01 48 05.2 21.3 R 683 – Goodricke-Pigott Observatory, Tucson MPS 89242
2003 10 21.23710 00 37 41.32 +01 48 06.7 20.2 R 683 – Goodricke-Pigott Observatory, Tucson MPS 89242
2003 10 21.24016 00 37 41.33 +01 48 07.9 18.4   644 – Palomar Mountain/NEAT MPS 87648
2003 10 21.26189 00 37 40.03 +01 48 10.1 18.5   644 – Palomar Mountain/NEAT MPS 87648
2003 10 24.20020 00 34 56.43 +01 53 52.3 20.5 R 683 – Goodricke-Pigott Observatory, Tucson MPS 87648
2003 10 24.21361 00 34 55.50 +01 53 54.6 21.1 R 683 – Goodricke-Pigott Observatory, Tucson MPS 87648
2003 10 24.22699 00 34 54.99 +01 53 56.3 20.8 R 683 – Goodricke-Pigott Observatory, Tucson MPS 87648
2003 10 24.23146 00 34 54.52 +01 53 56.1 19.3   704 – Lincoln Laboratory ETS, New Mexico MPS 87648
2003 10 24.24447 00 34 53.83 +01 53 58.0 19.4   704 – Lincoln Laboratory ETS, New Mexico MPS 87648
2003 10 24.25761 00 34 53.13 +01 53 59.7 19.5   704 – Lincoln Laboratory ETS, New Mexico MPS 87648
